owner,sensor,date,latitude,longitude,vertical_datum,direction_of_sea_water_velocity,sea_water_speed,upward_sea_water_velocity,qcFlag 
TABS,ioos:station:wmo:42043:1,2010-08-01T00:00:00Z,28.9818,-94.9186,2.0,69.62541742,17.0038231,-99999.0,'11111222,11111222,99999999' 
TABS,ioos:station:wmo:42043:1,2010-08-01T00:30:00Z,28.9818,-94.9186,2.0,69.76707348,17.43589688,-99999.0,'11111222,11111222,99999999' 
TABS,ioos:station:wmo:42043:1,2010-08-01T01:00:00Z,28.9818,-94.9186,2.0,70.96751693,26.98518297,-99999.0,'11111222,11111222,99999999' 
TABS,ioos:station:wmo:42043:1,2010-08-01T01:30:00Z,28.9818,-94.9186,2.0,67.12157119,35.95882785,-99999.0,'11111222,11111222,99999999' 
TABS,ioos:station:wmo:42043:1,2010-08-01T02:00:00Z,28.9818,-94.9186,2.0,64.48618923,37.0534101,-99999.0,'11111222,11111222,99999999' 
TABS,ioos:station:wmo:42043:1,2010-08-01T02:30:00Z,28.9818,-94.9186,2.0,66.99585025,37.15468207,-99999.0,'11111222,11111222,99999999' 
TABS,ioos:station:wmo:42043:1,2010-08-01T03:00:00Z,28.9818,-94.9186,2.0,60.96117733,38.95730612,-99999.0,'11111222,11111222,99999999' 
TABS,ioos:station:wmo:42043:1,2010-08-01T03:30:00Z,28.9818,-94.9186,2.0,65.70237853,39.22450892,-99999.0,'11111222,11111222,99999999' 
TABS,ioos:station:wmo:42043:1,2010-08-01T04:00:00Z,28.9818,-94.9186,2.0,65.90413543,39.2391743,-99999.0,'11111222,11111222,99999999' 
TABS,ioos:station:wmo:42043:1,2010-08-01T04:30:00Z,28.9818,-94.9186,2.0,63.48328022,37.15899084,-99999.0,'11111222,11111222,99999999' 
TABS,ioos:station:wmo:42043:1,2010-08-01T05:00:00Z,28.9818,-94.9186,2.0,65.14115776,39.65412085,-99999.0,'11111222,11111222,99999999' 
TABS,ioos:station:wmo:42043:1,2010-08-01T05:30:00Z,28.9818,-94.9186,2.0,63.95698992,37.30810636,-99999.0,'11111222,11111222,99999999' 
TABS,ioos:station:wmo:42043:1,2010-08-01T06:00:00Z,28.9818,-94.9186,2.0,65.15901283,35.82460886,-99999.0,'11111222,11111222,99999999' 
TABS,ioos:station:wmo:42043:1,2010-08-01T06:30:00Z,28.9818,-94.9186,2.0,66.55767247,34.56279213,-99999.0,'11111222,11111222,99999999' 
TABS,ioos:station:wmo:42043:1,2010-08-01T07:00:00Z,28.9818,-94.9186,2.0,63.02795869,30.8451001,-99999.0,'11111222,11111222,99999999' 
TABS,ioos:station:wmo:42043:1,2010-08-01T07:30:00Z,28.9818,-94.9186,2.0,57.1005295,34.77746541,-99999.0,'11111222,11111222,99999999' 
TABS,ioos:station:wmo:42043:1,2010-08-01T08:00:00Z,28.9818,-94.9186,2.0,59.83833875,40.0642796,-99999.0,'11111222,11111222,99999999' 
TABS,ioos:station:wmo:42043:1,2010-08-01T08:30:00Z,28.9818,-94.9186,2.0,60.14741873,37.58755246,-99999.0,'11111222,11111222,99999999' 
TABS,ioos:station:wmo:42043:1,2010-08-01T09:00:00Z,28.9818,-94.9186,2.0,58.22540043,38.17083311,-99999.0,'11111222,11111222,99999999' 
TABS,ioos:station:wmo:42043:1,2010-08-01T09:30:00Z,28.9818,-94.9186,2.0,56.35154488,38.26045609,-99999.0,'11111222,11111222,99999999' 
TABS,ioos:station:wmo:42043:1,2010-08-01T10:00:00Z,28.9818,-94.9186,2.0,56.13454535,40.75401453,-99999.0,'11111222,11111222,99999999' 
TABS,ioos:station:wmo:42043:1,2010-08-01T10:30:00Z,28.9818,-94.9186,2.0,56.33412389,39.54180699,-99999.0,'11111222,11111222,99999999' 
TABS,ioos:station:wmo:42043:1,2010-08-01T11:00:00Z,28.9818,-94.9186,2.0,53.09584616,36.70400659,-99999.0,'11111222,11111222,99999999' 
TABS,ioos:station:wmo:42043:1,2010-08-01T11:30:00Z,28.9818,-94.9186,2.0,56.70972523,44.52686829,-99999.0,'11111222,11111222,99999999' 
TABS,ioos:station:wmo:42043:1,2010-08-01T12:00:00Z,28.9818,-94.9186,2.0,68.91928707,40.89706224,-99999.0,'11111222,11111222,99999999' 
TABS,ioos:station:wmo:42043:1,2010-08-01T12:30:00Z,28.9818,-94.9186,2.0,77.25491444,38.2114878,-99999.0,'11111222,11111222,99999999' 
TABS,ioos:station:wmo:42043:1,2010-08-01T13:00:00Z,28.9818,-94.9186,2.0,84.82182043,38.33645784,-99999.0,'11111222,11111222,99999999' 
TABS,ioos:station:wmo:42043:1,2010-08-01T13:30:00Z,28.9818,-94.9186,2.0,91.87008444,36.15925884,-99999.0,'11111222,11111222,99999999' 
TABS,ioos:station:wmo:42043:1,2010-08-01T14:00:00Z,28.9818,-94.9186,2.0,86.29972692,43.5407694,-99999.0,'11111222,11111222,99999999' 
TABS,ioos:station:wmo:42043:1,2010-08-01T14:30:00Z,28.9818,-94.9186,2.0,89.08571057,40.73518626,-99999.0,'11111222,11111222,99999999' 
TABS,ioos:station:wmo:42043:1,2010-08-01T15:00:00Z,28.9818,-94.9186,2.0,87.44992887,36.18583424,-99999.0,'11111222,11111222,99999999' 
TABS,ioos:station:wmo:42043:1,2010-08-01T15:30:00Z,28.9818,-94.9186,2.0,88.34602605,32.91371295,-99999.0,'11111222,11111222,99999999' 
TABS,ioos:station:wmo:42043:1,2010-08-01T16:00:00Z,28.9818,-94.9186,2.0,89.6733465,26.31042759,-99999.0,'11111222,11111222,99999999' 
TABS,ioos:station:wmo:42043:1,2010-08-01T16:30:00Z,28.9818,-94.9186,2.0,89.84243245,29.09011,-99999.0,'11111222,11111222,99999999' 
TABS,ioos:station:wmo:42043:1,2010-08-01T17:00:00Z,28.9818,-94.9186,2.0,81.38864571,28.11697174,-99999.0,'11111222,11111222,99999999' 
TABS,ioos:station:wmo:42043:1,2010-08-01T17:30:00Z,28.9818,-94.9186,2.0,78.49971427,25.37952915,-99999.0,'11111222,11111222,99999999' 
TABS,ioos:station:wmo:42043:1,2010-08-01T18:00:00Z,28.9818,-94.9186,2.0,83.80360106,24.64397695,-99999.0,'11111222,11111222,99999999' 
TABS,ioos:station:wmo:42043:1,2010-08-01T18:30:00Z,28.9818,-94.9186,2.0,74.41581475,20.91905591,-99999.0,'11111222,11111222,99999999' 
TABS,ioos:station:wmo:42043:1,2010-08-01T19:00:00Z,28.9818,-94.9186,2.0,76.10859203,23.99170065,-99999.0,'11111222,11111222,99999999' 
TABS,ioos:station:wmo:42043:1,2010-08-01T19:30:00Z,28.9818,-94.9186,2.0,75.27112963,23.87452617,-99999.0,'11111222,11111222,99999999' 
TABS,ioos:station:wmo:42043:1,2010-08-01T20:00:00Z,28.9818,-94.9186,2.0,77.97021673,23.41419228,-99999.0,'11111222,11111222,99999999' 
TABS,ioos:station:wmo:42043:1,2010-08-01T20:30:00Z,28.9818,-94.9186,2.0,71.69025882,30.39904768,-99999.0,'11111222,11111222,99999999' 
TABS,ioos:station:wmo:42043:1,2010-08-01T21:00:00Z,28.9818,-94.9186,2.0,62.32272523,22.34700204,-99999.0,'11111222,11111222,99999999' 
TABS,ioos:station:wmo:42043:1,2010-08-01T21:30:00Z,28.9818,-94.9186,2.0,75.43718979,22.43064199,-99999.0,'11111222,11111222,99999999' 
TABS,ioos:station:wmo:42043:1,2010-08-01T22:00:00Z,28.9818,-94.9186,2.0,63.69663308,29.38223953,-99999.0,'11111222,11111222,99999999' 
TABS,ioos:station:wmo:42043:1,2010-08-01T22:30:00Z,28.9818,-94.9186,2.0,65.24814174,36.18427974,-99999.0,'11111222,11111222,99999999' 
TABS,ioos:station:wmo:42043:1,2010-08-01T23:00:00Z,28.9818,-94.9186,2.0,69.26481455,32.93319906,-99999.0,'11111222,11111222,99999999' 
TABS,ioos:station:wmo:42043:1,2010-08-01T23:30:00Z,28.9818,-94.9186,2.0,65.90451911,41.10132358,-99999.0,'11111222,11111222,99999999' 
TABS,ioos:station:wmo:42043:1,2010-08-02T00:00:00Z,28.9818,-94.9186,2.0,59.56458853,39.61957218,-99999.0,'11111222,11111222,99999999' 
TABS,ioos:station:wmo:42043:1,2010-08-02T00:30:00Z,28.9818,-94.9186,2.0,62.15390426,47.20625065,-99999.0,'11111222,11111222,99999999' 
TABS,ioos:station:wmo:42043:1,2010-08-02T01:00:00Z,28.9818,-94.9186,2.0,63.2220735,50.53995746,-99999.0,'11111222,11111222,99999999' 
TABS,ioos:station:wmo:42043:1,2010-08-02T01:30:00Z,28.9818,-94.9186,2.0,65.85874771,46.84728487,-99999.0,'11111222,11111222,99999999' 
TABS,ioos:station:wmo:42043:1,2010-08-02T02:00:00Z,28.9818,-94.9186,2.0,62.04156194,45.24008952,-99999.0,'11111222,11111222,99999999' 
TABS,ioos:station:wmo:42043:1,2010-08-02T02:30:00Z,28.9818,-94.9186,2.0,59.85155565,33.62913172,-99999.0,'11111222,11111222,99999999' 
TABS,ioos:station:wmo:42043:1,2010-08-02T03:00:00Z,28.9818,-94.9186,2.0,60.75965766,35.64152213,-99999.0,'11111222,11111222,99999999' 
TABS,ioos:station:wmo:42043:1,2010-08-02T03:30:00Z,28.9818,-94.9186,2.0,59.43659212,28.47631999,-99999.0,'11111222,11111222,99999999' 
TABS,ioos:station:wmo:42043:1,2010-08-02T04:00:00Z,28.9818,-94.9186,2.0,54.74649847,29.07156687,-99999.0,'11111222,11111222,99999999' 
TABS,ioos:station:wmo:42043:1,2010-08-02T04:30:00Z,28.9818,-94.9186,2.0,57.14435488,29.14149104,-99999.0,'11111222,11111222,99999999' 
TABS,ioos:station:wmo:42043:1,2010-08-02T05:00:00Z,28.9818,-94.9186,2.0,57.89288073,30.42304718,-99999.0,'11111222,11111222,99999999' 
TABS,ioos:station:wmo:42043:1,2010-08-02T05:30:00Z,28.9818,-94.9186,2.0,57.48766376,31.98244831,-99999.0,'11111222,11111222,99999999' 
TABS,ioos:station:wmo:42043:1,2010-08-02T06:00:00Z,28.9818,-94.9186,2.0,57.05753551,38.69085809,-99999.0,'11111222,11111222,99999999' 
TABS,ioos:station:wmo:42043:1,2010-08-02T06:30:00Z,28.9818,-94.9186,2.0,52.63215982,32.903243,-99999.0,'11111222,11111222,99999999' 
TABS,ioos:station:wmo:42043:1,2010-08-02T07:00:00Z,28.9818,-94.9186,2.0,57.84124344,29.68428709,-99999.0,'11111222,11111222,99999999' 
TABS,ioos:station:wmo:42043:1,2010-08-02T07:30:00Z,28.9818,-94.9186,2.0,52.90653614,31.25423811,-99999.0,'11111222,11111222,99999999' 
TABS,ioos:station:wmo:42043:1,2010-08-02T08:00:00Z,28.9818,-94.9186,2.0,52.96683721,33.67213685,-99999.0,'11111222,11111222,99999999' 
TABS,ioos:station:wmo:42043:1,2010-08-02T08:30:00Z,28.9818,-94.9186,2.0,45.18625027,21.76486159,-99999.0,'11111222,11111222,99999999' 
TABS,ioos:station:wmo:42043:1,2010-08-02T09:00:00Z,28.9818,-94.9186,2.0,48.50193135,29.17312805,-99999.0,'11111222,11111222,99999999' 
TABS,ioos:station:wmo:42043:1,2010-08-02T09:30:00Z,28.9818,-94.9186,2.0,43.19688829,24.71855174,-99999.0,'11111222,11111222,99999999' 
TABS,ioos:station:wmo:42043:1,2010-08-02T10:00:00Z,28.9818,-94.9186,2.0,53.1692183,23.48800545,-99999.0,'11111222,11111222,99999999' 
TABS,ioos:station:wmo:42043:1,2010-08-02T10:30:00Z,28.9818,-94.9186,2.0,51.86172632,29.00110688,-99999.0,'11111222,11111222,99999999' 
TABS,ioos:station:wmo:42043:1,2010-08-02T11:00:00Z,28.9818,-94.9186,2.0,46.46890251,20.41380905,-99999.0,'11111222,11111222,99999999' 
TABS,ioos:station:wmo:42043:1,2010-08-02T11:30:00Z,28.9818,-94.9186,2.0,51.72051313,26.82811958,-99999.0,'11111222,11111222,99999999' 
TABS,ioos:station:wmo:42043:1,2010-08-02T12:00:00Z,28.9818,-94.9186,2.0,57.07635568,19.90719719,-99999.0,'11111222,11111222,99999999' 
TABS,ioos:station:wmo:42043:1,2010-08-02T12:30:00Z,28.9818,-94.9186,2.0,67.76663137,16.99346345,-99999.0,'11111222,11111222,99999999' 
TABS,ioos:station:wmo:42043:1,2010-08-02T13:00:00Z,28.9818,-94.9186,2.0,76.78615841,17.23635692,-99999.0,'11111222,11111222,99999999' 
TABS,ioos:station:wmo:42043:1,2010-08-02T13:30:00Z,28.9818,-94.9186,2.0,77.43778799,13.01149108,-99999.0,'11111222,11111222,99999999' 
TABS,ioos:station:wmo:42043:1,2010-08-02T14:00:00Z,28.9818,-94.9186,2.0,82.11911688,15.6074085,-99999.0,'11111222,11111222,99999999' 
TABS,ioos:station:wmo:42043:1,2010-08-02T14:30:00Z,28.9818,-94.9186,2.0,96.89926586,17.31538333,-99999.0,'11111222,11111222,99999999' 
TABS,ioos:station:wmo:42043:1,2010-08-02T15:00:00Z,28.9818,-94.9186,2.0,95.09781549,18.79434223,-99999.0,'11111222,11111222,99999999' 
TABS,ioos:station:wmo:42043:1,2010-08-02T15:30:00Z,28.9818,-94.9186,2.0,116.3855045,12.84850964,-99999.0,'11111222,11111222,99999999' 
TABS,ioos:station:wmo:42043:1,2010-08-02T16:00:00Z,28.9818,-94.9186,2.0,109.0268068,14.99948332,-99999.0,'11111222,11111222,99999999' 
TABS,ioos:station:wmo:42043:1,2010-08-02T16:30:00Z,28.9818,-94.9186,2.0,112.4036031,13.25009434,-99999.0,'11111222,11111222,99999999' 
TABS,ioos:station:wmo:42043:1,2010-08-02T17:00:00Z,28.9818,-94.9186,2.0,118.065949,10.41470595,-99999.0,'11111222,11111222,99999999' 
TABS,ioos:station:wmo:42043:1,2010-08-02T17:30:00Z,28.9818,-94.9186,2.0,125.1359469,9.452327756,-99999.0,'11133222,11111222,99999999' 
TABS,ioos:station:wmo:42043:1,2010-08-02T18:00:00Z,28.9818,-94.9186,2.0,109.5513398,8.277251959,-99999.0,'11133222,11111222,99999999' 
TABS,ioos:station:wmo:42043:1,2010-08-02T18:30:00Z,28.9818,-94.9186,2.0,94.60553766,7.223323335,-99999.0,'11133222,11111222,99999999' 
TABS,ioos:station:wmo:42043:1,2010-08-02T19:00:00Z,28.9818,-94.9186,2.0,79.26946839,3.491045689,-99999.0,'11133222,11111222,99999999' 
TABS,ioos:station:wmo:42043:1,2010-08-02T19:30:00Z,28.9818,-94.9186,2.0,108.0477789,4.68027777,-99999.0,'11133222,11111222,99999999' 
TABS,ioos:station:wmo:42043:1,2010-08-02T20:00:00Z,28.9818,-94.9186,2.0,114.1546499,3.934488531,-99999.0,'11133222,11111222,99999999' 
TABS,ioos:station:wmo:42043:1,2010-08-02T20:30:00Z,28.9818,-94.9186,2.0,20.08909012,4.163291967,-99999.0,'11133222,11111222,99999999' 
TABS,ioos:station:wmo:42043:1,2010-08-02T21:00:00Z,28.9818,-94.9186,2.0,8.110917527,4.181829743,-99999.0,'11133222,11111222,99999999' 
TABS,ioos:station:wmo:42043:1,2010-08-02T21:30:00Z,28.9818,-94.9186,2.0,7.594836068,4.539823785,-99999.0,'11133222,11111222,99999999' 
TABS,ioos:station:wmo:42043:1,2010-08-02T22:00:00Z,28.9818,-94.9186,2.0,342.4965788,5.253237097,-99999.0,'11133222,11111222,99999999' 
TABS,ioos:station:wmo:42043:1,2010-08-02T22:30:00Z,28.9818,-94.9186,2.0,26.14951893,7.397107543,-99999.0,'11133222,11111222,99999999' 
TABS,ioos:station:wmo:42043:1,2010-08-02T23:00:00Z,28.9818,-94.9186,2.0,6.726032594,8.367586271,-99999.0,'11133222,11111222,99999999' 
TABS,ioos:station:wmo:42043:1,2010-08-02T23:30:00Z,28.9818,-94.9186,2.0,14.42554246,10.35651003,-99999.0,'11111222,11111222,99999999' 
TABS,ioos:station:wmo:42043:1,2010-08-03T00:00:00Z,28.9818,-94.9186,2.0,13.53047107,14.83163174,-99999.0,'11111222,11111222,99999999' 
TABS,ioos:station:wmo:42043:1,2010-08-03T00:30:00Z,28.9818,-94.9186,2.0,18.39237418,16.95613753,-99999.0,'11111222,11111222,99999999' 
TABS,ioos:station:wmo:42043:1,2010-08-03T01:00:00Z,28.9818,-94.9186,2.0,5.560925063,19.4013015,-99999.0,'11111222,11111222,99999999' 
TABS,ioos:station:wmo:42043:1,2010-08-03T01:30:00Z,28.9818,-94.9186,2.0,23.78586755,28.95984116,-99999.0,'11111222,11111222,99999999' 
TABS,ioos:station:wmo:42043:1,2010-08-03T02:00:00Z,28.9818,-94.9186,2.0,29.32061777,18.41966341,-99999.0,'11111222,11111222,99999999' 
TABS,ioos:station:wmo:42043:1,2010-08-03T02:30:00Z,28.9818,-94.9186,2.0,40.56110015,24.66716846,-99999.0,'11111222,11111222,99999999' 
TABS,ioos:station:wmo:42043:1,2010-08-03T03:00:00Z,28.9818,-94.9186,2.0,54.75222161,21.83274834,-99999.0,'11111222,11111222,99999999' 
TABS,ioos:station:wmo:42043:1,2010-08-03T03:30:00Z,28.9818,-94.9186,2.0,55.68880991,25.58150308,-99999.0,'11111222,11111222,99999999' 
TABS,ioos:station:wmo:42043:1,2010-08-03T04:00:00Z,28.9818,-94.9186,2.0,58.59270607,25.69468817,-99999.0,'11111222,11111222,99999999' 
TABS,ioos:station:wmo:42043:1,2010-08-03T04:30:00Z,28.9818,-94.9186,2.0,61.01170593,29.40375656,-99999.0,'11111222,11111222,99999999' 
TABS,ioos:station:wmo:42043:1,2010-08-03T05:00:00Z,28.9818,-94.9186,2.0,56.98310715,27.85896624,-99999.0,'11111222,11111222,99999999' 
TABS,ioos:station:wmo:42043:1,2010-08-03T05:30:00Z,28.9818,-94.9186,2.0,59.85115429,31.8367869,-99999.0,'11111222,11111222,99999999' 
TABS,ioos:station:wmo:42043:1,2010-08-03T06:00:00Z,28.9818,-94.9186,2.0,58.92366937,33.1473106,-99999.0,'11111222,11111222,99999999' 
TABS,ioos:station:wmo:42043:1,2010-08-03T06:30:00Z,28.9818,-94.9186,2.0,57.50992413,32.44875652,-99999.0,'11111222,11111222,99999999' 
TABS,ioos:station:wmo:42043:1,2010-08-03T07:00:00Z,28.9818,-94.9186,2.0,59.58210547,28.08588257,-99999.0,'11111222,11111222,99999999' 
TABS,ioos:station:wmo:42043:1,2010-08-03T07:30:00Z,28.9818,-94.9186,2.0,60.49155045,37.88425135,-99999.0,'11111222,11111222,99999999' 
TABS,ioos:station:wmo:42043:1,2010-08-03T08:00:00Z,28.9818,-94.9186,2.0,63.38037678,32.82996497,-99999.0,'11111222,11111222,99999999' 
TABS,ioos:station:wmo:42043:1,2010-08-03T08:30:00Z,28.9818,-94.9186,2.0,60.82837481,37.07211621,-99999.0,'11111222,11111222,99999999' 
TABS,ioos:station:wmo:42043:1,2010-08-03T09:00:00Z,28.9818,-94.9186,2.0,68.41887796,25.12105093,-99999.0,'11111222,11111222,99999999' 
TABS,ioos:station:wmo:42043:1,2010-08-03T09:30:00Z,28.9818,-94.9186,2.0,73.49285165,36.00393451,-99999.0,'11111222,11111222,99999999' 
TABS,ioos:station:wmo:42043:1,2010-08-03T10:00:00Z,28.9818,-94.9186,2.0,70.5828649,36.15647107,-99999.0,'11111222,11111222,99999999' 
TABS,ioos:station:wmo:42043:1,2010-08-03T10:30:00Z,28.9818,-94.9186,2.0,76.34961279,40.33943976,-99999.0,'11111222,11111222,99999999' 
TABS,ioos:station:wmo:42043:1,2010-08-03T11:00:00Z,28.9818,-94.9186,2.0,78.19213822,30.68941185,-99999.0,'11111222,11111222,99999999' 
TABS,ioos:station:wmo:42043:1,2010-08-03T11:30:00Z,28.9818,-94.9186,2.0,79.89320036,40.63049224,-99999.0,'11111222,11111222,99999999' 
TABS,ioos:station:wmo:42043:1,2010-08-03T12:00:00Z,28.9818,-94.9186,2.0,81.5586061,34.8778497,-99999.0,'11111222,11111222,99999999' 
TABS,ioos:station:wmo:42043:1,2010-08-03T12:30:00Z,28.9818,-94.9186,2.0,89.04284571,37.11517884,-99999.0,'11111222,11111222,99999999' 
TABS,ioos:station:wmo:42043:1,2010-08-03T13:00:00Z,28.9818,-94.9186,2.0,87.36844427,37.67973593,-99999.0,'11111222,11111222,99999999' 
TABS,ioos:station:wmo:42043:1,2010-08-03T13:30:00Z,28.9818,-94.9186,2.0,92.30731094,37.0100054,-99999.0,'11111222,11111222,99999999' 
TABS,ioos:station:wmo:42043:1,2010-08-03T14:00:00Z,28.9818,-94.9186,2.0,96.14428557,33.91482419,-99999.0,'11111222,11111222,99999999' 
TABS,ioos:station:wmo:42043:1,2010-08-03T14:30:00Z,28.9818,-94.9186,2.0,97.08628796,31.20838669,-99999.0,'11111222,11111222,99999999' 
TABS,ioos:station:wmo:42043:1,2010-08-03T15:00:00Z,28.9818,-94.9186,2.0,104.2888391,32.45400746,-99999.0,'11111222,11111222,99999999' 
TABS,ioos:station:wmo:42043:1,2010-08-03T15:30:00Z,28.9818,-94.9186,2.0,107.849222,26.29571258,-99999.0,'11111222,11111222,99999999' 
TABS,ioos:station:wmo:42043:1,2010-08-03T16:00:00Z,28.9818,-94.9186,2.0,117.0867929,24.55304462,-99999.0,'11111222,11111222,99999999' 
TABS,ioos:station:wmo:42043:1,2010-08-03T16:30:00Z,28.9818,-94.9186,2.0,123.6468985,22.12699709,-99999.0,'11111222,11111222,99999999' 
TABS,ioos:station:wmo:42043:1,2010-08-03T17:00:00Z,28.9818,-94.9186,2.0,133.3776755,17.73427472,-99999.0,'11111222,11111222,99999999' 
TABS,ioos:station:wmo:42043:1,2010-08-03T17:30:00Z,28.9818,-94.9186,2.0,119.1122724,18.31360423,-99999.0,'11111222,11111222,99999999' 
TABS,ioos:station:wmo:42043:1,2010-08-03T18:00:00Z,28.9818,-94.9186,2.0,137.3469702,16.057724,-99999.0,'11111222,11111222,99999999' 
TABS,ioos:station:wmo:42043:1,2010-08-03T18:30:00Z,28.9818,-94.9186,2.0,147.838681,12.47410117,-99999.0,'11111222,11111222,99999999' 
TABS,ioos:station:wmo:42043:1,2010-08-03T19:00:00Z,28.9818,-94.9186,2.0,158.9913708,12.74734874,-99999.0,'11111222,11111222,99999999' 
TABS,ioos:station:wmo:42043:1,2010-08-03T19:30:00Z,28.9818,-94.9186,2.0,160.6935343,8.3177521,-99999.0,'11133222,11111222,99999999' 
TABS,ioos:station:wmo:42043:1,2010-08-03T20:00:00Z,28.9818,-94.9186,2.0,148.5123938,4.690682253,-99999.0,'11133222,11111222,99999999' 
TABS,ioos:station:wmo:42043:1,2010-08-03T20:30:00Z,28.9818,-94.9186,2.0,133.0148326,5.511669439,-99999.0,'11133222,11111222,99999999' 
TABS,ioos:station:wmo:42043:1,2010-08-03T21:00:00Z,28.9818,-94.9186,2.0,343.6642058,1.813201588,-99999.0,'11133222,11111222,99999999' 
TABS,ioos:station:wmo:42043:1,2010-08-03T21:30:00Z,28.9818,-94.9186,2.0,339.1557708,5.114762947,-99999.0,'11133222,11111222,99999999' 
TABS,ioos:station:wmo:42043:1,2010-08-03T22:00:00Z,28.9818,-94.9186,2.0,348.9562527,13.52039201,-99999.0,'11111222,11111222,99999999' 
TABS,ioos:station:wmo:42043:1,2010-08-03T22:30:00Z,28.9818,-94.9186,2.0,349.6139721,14.47721313,-99999.0,'11111222,11111222,99999999' 
TABS,ioos:station:wmo:42043:1,2010-08-03T23:00:00Z,28.9818,-94.9186,2.0,358.5985362,15.53464837,-99999.0,'11111222,11111222,99999999' 
TABS,ioos:station:wmo:42043:1,2010-08-03T23:30:00Z,28.9818,-94.9186,2.0,348.6961313,19.28409967,-99999.0,'11111222,11111222,99999999' 
TABS,ioos:station:wmo:42043:1,2010-08-04T00:00:00Z,28.9818,-94.9186,2.0,356.9711925,27.8188659,-99999.0,'11111222,11111222,99999999' 
TABS,ioos:station:wmo:42043:1,2010-08-04T00:30:00Z,28.9818,-94.9186,2.0,1.39512097,30.80913014,-99999.0,'11111222,11111222,99999999' 
TABS,ioos:station:wmo:42043:1,2010-08-04T01:00:00Z,28.9818,-94.9186,2.0,3.382014605,30.68343201,-99999.0,'11111222,11111222,99999999' 
TABS,ioos:station:wmo:42043:1,2010-08-04T01:30:00Z,28.9818,-94.9186,2.0,7.202265688,29.51285144,-99999.0,'11111222,11111222,99999999' 
TABS,ioos:station:wmo:42043:1,2010-08-04T02:00:00Z,28.9818,-94.9186,2.0,2.45373269,32.46976594,-99999.0,'11111222,11111222,99999999' 
TABS,ioos:station:wmo:42043:1,2010-08-04T02:30:00Z,28.9818,-94.9186,2.0,4.684781163,35.50862008,-99999.0,'11111222,11111222,99999999' 
TABS,ioos:station:wmo:42043:1,2010-08-04T03:00:00Z,28.9818,-94.9186,2.0,7.762373121,34.57682027,-99999.0,'11111222,11111222,99999999' 
TABS,ioos:station:wmo:42043:1,2010-08-04T03:30:00Z,28.9818,-94.9186,2.0,10.13167286,38.42924017,-99999.0,'11111222,11111222,99999999' 
TABS,ioos:station:wmo:42043:1,2010-08-04T04:00:00Z,28.9818,-94.9186,2.0,9.574219061,34.57152875,-99999.0,'11111222,11111222,99999999' 
TABS,ioos:station:wmo:42043:1,2010-08-04T04:30:00Z,28.9818,-94.9186,2.0,12.94404367,36.38453105,-99999.0,'11111222,11111222,99999999' 
TABS,ioos:station:wmo:42043:1,2010-08-04T05:00:00Z,28.9818,-94.9186,2.0,22.36274757,33.74803254,-99999.0,'11111222,11111222,99999999' 
TABS,ioos:station:wmo:42043:1,2010-08-04T05:30:00Z,28.9818,-94.9186,2.0,21.08014706,29.05433875,-99999.0,'11111222,11111222,99999999' 
TABS,ioos:station:wmo:42043:1,2010-08-04T06:00:00Z,28.9818,-94.9186,2.0,31.00643032,32.3412121,-99999.0,'11111222,11111222,99999999' 
TABS,ioos:station:wmo:42043:1,2010-08-04T06:30:00Z,28.9818,-94.9186,2.0,35.14663082,35.24594303,-99999.0,'11111222,11111222,99999999' 
TABS,ioos:station:wmo:42043:1,2010-08-04T07:00:00Z,28.9818,-94.9186,2.0,42.88549583,32.38633199,-99999.0,'11111222,11111222,99999999' 
TABS,ioos:station:wmo:42043:1,2010-08-04T07:30:00Z,28.9818,-94.9186,2.0,45.5415523,36.66512376,-99999.0,'11111222,11111222,99999999' 
TABS,ioos:station:wmo:42043:1,2010-08-04T08:00:00Z,28.9818,-94.9186,2.0,49.6801468,36.22565389,-99999.0,'11111222,11111222,99999999' 
TABS,ioos:station:wmo:42043:1,2010-08-04T08:30:00Z,28.9818,-94.9186,2.0,52.78563128,34.92063144,-99999.0,'11111222,11111222,99999999' 
TABS,ioos:station:wmo:42043:1,2010-08-04T09:00:00Z,28.9818,-94.9186,2.0,59.87115106,35.90017967,-99999.0,'11111222,11111222,99999999' 
TABS,ioos:station:wmo:42043:1,2010-08-04T09:30:00Z,28.9818,-94.9186,2.0,62.38200196,37.2323475,-99999.0,'11111222,11111222,99999999' 
TABS,ioos:station:wmo:42043:1,2010-08-04T10:00:00Z,28.9818,-94.9186,2.0,69.33365807,35.24817726,-99999.0,'11111222,11111222,99999999' 
TABS,ioos:station:wmo:42043:1,2010-08-04T10:30:00Z,28.9818,-94.9186,2.0,67.09173453,34.98967419,-99999.0,'11111222,11111222,99999999' 
TABS,ioos:station:wmo:42043:1,2010-08-04T11:00:00Z,28.9818,-94.9186,2.0,64.87639917,33.06849256,-99999.0,'11111222,11111222,99999999' 
TABS,ioos:station:wmo:42043:1,2010-08-04T11:30:00Z,28.9818,-94.9186,2.0,64.71890332,33.53154932,-99999.0,'11111222,11111222,99999999' 
TABS,ioos:station:wmo:42043:1,2010-08-04T12:00:00Z,28.9818,-94.9186,2.0,32.86541435,28.32315307,-99999.0,'11111222,11111222,99999999' 
TABS,ioos:station:wmo:42043:1,2010-08-04T12:30:00Z,28.9818,-94.9186,2.0,35.71412636,29.84207265,-99999.0,'11111222,11111222,99999999' 
TABS,ioos:station:wmo:42043:1,2010-08-04T13:00:00Z,28.9818,-94.9186,2.0,35.62457515,29.16889096,-99999.0,'11111222,11111222,99999999' 
TABS,ioos:station:wmo:42043:1,2010-08-04T13:30:00Z,28.9818,-94.9186,2.0,43.12061168,28.67446425,-99999.0,'11111222,11111222,99999999' 
TABS,ioos:station:wmo:42043:1,2010-08-04T14:00:00Z,28.9818,-94.9186,2.0,43.81168819,28.29742921,-99999.0,'11111222,11111222,99999999' 
TABS,ioos:station:wmo:42043:1,2010-08-04T14:30:00Z,28.9818,-94.9186,2.0,43.38677467,27.87812942,-99999.0,'11111222,11111222,99999999' 
TABS,ioos:station:wmo:42043:1,2010-08-04T15:00:00Z,28.9818,-94.9186,2.0,48.12222839,28.04305262,-99999.0,'11111222,11111222,99999999' 
TABS,ioos:station:wmo:42043:1,2010-08-04T15:30:00Z,28.9818,-94.9186,2.0,51.0882409,28.40203514,-99999.0,'11111222,11111222,99999999' 
TABS,ioos:station:wmo:42043:1,2010-08-04T16:00:00Z,28.9818,-94.9186,2.0,51.18302094,27.31177036,-99999.0,'11111222,11111222,99999999' 